Flag for Brazil Weather past 2 weeks in Rio Grande, Rio Grande do Sul, Brazil

Now
73 °F

Scattered clouds.


Feels Like: 76 °F
Forecast: N/A
Wind: 10 mph from South

Location: Pelotas Airport

Current Time: Mar 27, 2015 at 6:01:45 PM

Latest Report: Mar 27, 2015 at 5:00 PM


Visibility: N/A

Pressure: 30.07 "Hg

Humidity: 69%

Dew point: 63 °F

Location of Rio GrandeLocation

Historic Weather in Rio Grande — Graph

°F

Rio Grande temperature yesterday

Maximum temperature yesterday: 72 °F (at 12:00 AM)
Minimum temperature yesterday: 63 °F (at 11:00 PM)
Average temperature yesterday: 67 °F

Past Weeks' High & Low Weather Summary

 TemperatureHumidityPressure
High91 °F (Mar 20, 1:00 PM)100% (Mar 12, 10:00 PM)30.15 "Hg (Mar 12, 10:00 PM)
Low57 °F (Mar 23, 6:00 AM)38% (Mar 19, 3:00 PM)29.74 "Hg (Mar 20, 4:00 PM)
Average72 °F81%30.00 "Hg
* Reported Mar 12 5:00 PM — Mar 27 5:00 PM, Rio Grande, Weather by CustomWeather, © 2015

Note: Actual official high and low records may vary slightly from our data, if they occured in-between our weather recording intervals... More about our weather records

Advertising

Rio Grande weather history for previous 24 hours

 ConditionsComfort  
Time TempWeatherWind HumidityBarometerVisibility
5:00 PM
Fri, Mar 27
73 °FScattered clouds.10 mph69%30.07 "HgN/A
4:00 PM79 °FPassing clouds.9 mph58%30.04 "HgN/A
3:00 PM77 °FScattered clouds.12 mph61%30.04 "HgN/A
2:00 PM79 °FScattered clouds.8 mph54%30.04 "HgN/A
1:00 PM77 °FPartly sunny.10 mph61%30.07 "HgN/A
12:00 PM72 °FPartly sunny.10 mph73%30.09 "HgN/A
11:00 AM73 °FPartly sunny.8 mph69%30.09 "HgN/A
10:00 AM70 °FPassing clouds.14 mph78%30.09 "HgN/A
9:00 AM64 °FSunny.6 mph88%30.09 "Hg10 mi
8:00 AM61 °FSunny.7 mph94%30.07 "Hg10 mi
7:00 AM61 °FSunny.12 mph94%30.04 "Hg10 mi
6:00 AM61 °FSunny.7 mph88%30.04 "Hg10 mi
5:00 AM61 °FClear.6 mph88%30.01 "Hg10 mi
4:00 AM61 °FClear.6 mph88%30.01 "Hg10 mi
3:00 AM61 °FClear.5 mph88%30.04 "Hg10 mi
2:00 AM63 °FClear.7 mph83%30.04 "Hg10 mi
1:00 AM63 °FPassing clouds.5 mph83%30.04 "HgN/A
12:00 AM63 °FPassing clouds.5 mph77%30.04 "HgN/A
11:00 PM
Thu, Mar 26
63 °FPassing clouds.5 mph77%30.04 "HgN/A
10:00 PM64 °FPassing clouds.7 mph73%30.04 "HgN/A
9:00 PM64 °FPassing clouds.7 mph73%30.04 "HgN/A
8:00 PM66 °FPassing clouds.6 mph64%30.01 "HgN/A
7:00 PM66 °FPassing clouds.7 mph68%30.01 "HgN/A
6:00 PM68 °FPassing clouds.7 mph60%29.98 "HgN/A
Weather by CustomWeather, © 2015

See weather overviewHow to use our weather pages